Probability
0 0 0 0 0 0 0 0 0 0 0 0 1 6 15 27 41 57 71 79 84 86 86 84 79 77 81 84 89 93 94 94 96 98 98 98 98 96 94 91 89 87 87 87
0 0 0 0 0 0 0 0 0 0 0 0 1 4 10 20 32 48 65 76 81 82 83 83 81 82 86 89 91 93 94 94 94 95 96 96 95 93 92 91 89 87 87 88
0 0 0 0 0 0 0 0 0 0 0 0 0 1 4 8 14 25 44 60 67 68 72 76 78 81 87 92 93 93 93 92 93 94 94 94 92 90 91 91 90 88 87 86
0 0 0 0 0 0 0 0 0 0 0 0 0 0 1 2 3 8 22 38 45 48 51 55 60 67 76 83 86 88 89 90 91 93 93 91 91 90 90 90 89 87 85 84
0 0 0 0 0 0 0 0 0 0 0 0 0 0 0 1 1 4 11 20 25 26 26 28 33 40 50 60 67 74 81 85 88 91 91 91 91 90 89 88 86 84 83 83
0 0 0 0 0 0 0 0 0 0 0 0 0 0 0 0 1 3 6 8 9 9 8 9 11 15 24 35 44 56 69 76 80 85 87 89 90 90 89 87 84 83 83 83
0 0 0 0 0 0 0 0 0 0 0 0 0 0 0 0 1 2 3 2 2 1 1 1 2 3 9 17 26 39 55 65 69 74 79 83 86 88 88 88 87 85 84 82
0 0 0 0 0 0 0 0 0 0 0 0 0 0 0 0 0 1 1 1 0 0 0 0 0 1 3 6 13 24 38 52 61 67 73 79 84 86 87 88 88 87 84 79
0 0 0 0 0 0 0 0 0 0 0 0 0 0 0 0 0 0 0 0 0 0 0 0 0 0 0 1 4 12 24 37 49 58 65 71 77 81 83 82 80 80 76 69
0 0 0 0 0 0 0 0 0 0 0 0 0 0 0 0 0 0 0 0 0 0 0 0 0 1 0 0 1 5 13 23 33 42 50 55 62 69 71 68 63 59 54 48
0 0 0 0 0 0 0 0 0 0 0 0 0 0 0 0 0 0 0 0 0 0 0 0 0 0 0 0 1 3 7 12 18 24 30 34 41 48 52 49 41 32 26 23
0 0 0 0 0 0 0 0 0 0 0 0 0 0 0 0 0 0 0 0 0 0 0 0 0 0 0 0 0 2 4 6 9 11 14 17 20 25 29 28 22 13 8 7
0 0 0 0 0 0 0 0 0 0 0 0 0 0 0 0 0 0 0 0 0 0 0 0 0 0 0 0 0 0 1 2 3 3 5 6 6 7 9 10 8 4 2 1
0 0 0 0 0 0 0 0 0 0 0 0 0 0 0 0 0 0 0 0 0 0 0 0 0 0 0 0 0 0 0 0 0 1 1 1 1 1 1 1 1 1 0 0
0 0 0 0 0 0 0 0 0 0 0 0 0 0 0 0 0 0 0 0 0 0 0 0 0 0 0 0 0 0 0 0 0 0 0 0 0 0 0 0 0 0 0 0
0 0 0 0 0 0 0 0 0 0 0 0 0 0 0 0 0 0 0 0 0 0 0 0 0 0 0 0 0 0 0 0 0 0 0 0 0 0 0 0 0 0 0 0
0 0 0 0 0 0 0 0 0 0 0 0 0 0 0 0 0 0 0 0 0 0 0 0 0 0 0 0 0 0 0 0 0 0 0 0 0 0 0 0 0 0 0 0
0 0 0 0 0 0 0 0 0 0 0 0 0 0 0 0 0 0 0 0 0 0 0 0 0 0 0 0 0 0 0 0 0 0 0 0 0 0 0 0 0 0 0 0
0 0 0 0 0 0 0 0 0 0 0 0 0 0 0 0 0 0 0 0 0 0 0 0 0 0 0 0 0 0 0 0 0 0 0 0 0 0 0 0 0 0 0 0
0 0 0 0 0 0 0 0 0 0 0 0 0 0 0 0 0 0 0 0 0 0 0 0 0 0 0 0 0 0 0 0 0 0 0 0 0 0 0 0 0 0 0 0
0 0 0 0 0 0 0 0 0 0 0 0 0 0 0 0 0 0 0 0 0 0 1 1 1 0 0 0 0 0 0 0 0 0 0 0 0 0 0 0 0 0 0 0
0 0 0 0 0 0 0 0 0 0 0 0 0 0 0 0 0 0 0 0 0 0 1 2 2 1 0 0 0 0 0 0 0 0 0 0 0 0 0 0 0 0 0 0
0 0 0 0 0 0 0 0 0 0 0 0 0 0 0 0 0 0 0 0 0 1 3 5 3 1 1 0 0 0 0 0 0 0 0 0 0 0 0 0 0 0 0 0
0 0 0 0 0 0 0 0 0 0 0 0 0 0 0 0 0 0 0 0 1 3 7 9 8 5 4 3 1 0 0 0 0 0 0 0 0 0 0 0 0 0 0 0
0 0 0 0 0 0 0 0 0 0 0 0 0 0 0 0 0 0 0 0 2 5 9 13 13 10 8 6 4 1 0 0 0 0 0 0 0 0 0 0 0 0 0 0
0 0 0 0 0 0 0 0 0 0 0 0 0 0 0 0 0 0 0 0 2 6 10 13 14 11 8 7 6 2 1 0 0 0 0 0 0 0 0 0 0 0 0 0
Wind_Speed
3 4 1 2 2 2 2 4 4 2 1 6 6 5 3 5 5 5 5 5 3 2 2 2 3 6 7 9 10 10 11 11 10 9 9 9 9 9 9 10 11 11 11 11
6 3 5 1 2 4 4 5 4 3 1 6 7 7 2 1 3 5 5 5 5 4 2 2 2 3 5 6 8 9 10 11 11 9 8 7 8 8 8 8 10 12 12 12
0 5 2 1 3 4 3 4 4 7 7 10 10 11 9 6 3 2 3 4 5 6 6 5 4 4 4 4 5 6 8 9 11 11 8 8 7 8 9 10 9 11 12 11
1 1 1 2 1 5 3 2 7 9 12 11 8 12 9 7 6 4 3 4 5 6 6 6 6 6 5 5 5 5 6 7 8 9 10 13 11 11 12 9 8 9 10 10
1 1 3 3 2 5 6 6 10 12 14 16 15 14 10 6 8 3 3 3 4 5 6 6 7 7 7 7 6 6 6 7 7 8 10 11 12 11 9 7 9 9 8 9
2 2 4 3 1 3 6 10 13 12 12 15 11 11 10 4 2 1 2 3 4 5 5 5 6 6 6 7 7 7 7 7 7 8 9 10 12 12 11 11 10 8 6 7
3 4 3 3 6 4 7 10 9 8 8 6 2 8 7 4 2 1 2 3 4 5 5 6 7 7 7 8 8 7 8 8 8 8 8 9 11 11 13 11 10 8 6 6
4 2 2 1 5 7 6 8 8 9 9 11 10 9 3 3 1 2 3 4 5 6 6 7 7 7 7 8 8 8 9 9 9 9 8 8 9 8 8 9 8 8 6 6
5 3 3 1 4 7 6 6 7 11 15 14 9 6 4 4 4 5 5 6 7 7 7 8 8 8 7 8 8 9 9 10 9 9 9 8 7 7 7 7 7 5 4 5
6 9 4 3 6 4 5 7 6 7 8 10 9 10 5 2 4 5 7 8 8 9 9 8 8 7 7 7 6 7 8 9 9 9 8 6 6 5 5 4 3 2 3 4
7 9 7 6 8 8 5 6 7 8 8 10 11 7 4 4 6 7 9 9 9 9 9 8 8 7 7 6 6 6 7 8 8 8 7 7 5 3 1 1 3 5 5 6
5 8 10 9 1 3 8 9 9 10 10 11 12 10 2 3 7 9 11 11 9 9 9 8 7 6 6 6 5 5 6 7 7 6 6 5 4 3 3 5 6 6 7 7
3 7 11 10 7 7 8 10 11 11 12 13 15 12 1 5 10 12 12 11 9 8 8 7 6 6 5 5 5 5 5 4 5 4 4 5 5 4 5 6 6 7 8 7
5 11 14 16 14 14 12 13 12 13 13 16 18 20 17 17 17 15 13 10 9 8 7 7 6 6 5 5 5 4 4 3 2 2 3 4 5 4 5 6 7 7 7 7
6 12 14 16 16 16 17 18 17 17 18 21 22 22 20 18 16 14 11 9 9 8 8 7 6 6 5 5 5 4 3 2 1 0 2 3 3 4 5 6 7 6 6 6
5 10 13 16 16 16 18 19 20 19 19 20 21 21 17 14 12 11 10 10 9 9 8 7 6 6 6 6 5 4 3 2 1 1 2 3 4 5 5 6 6 6 6 6
8 8 12 14 13 13 13 11 11 12 12 15 17 16 15 15 13 11 10 9 9 9 8 7 7 6 6 5 4 4 4 3 2 2 4 4 5 6 6 6 6 7 7 6
8 9 8 10 9 10 5 6 9 12 14 14 15 15 16 15 12 10 10 9 9 9 8 7 7 6 6 5 5 5 5 4 4 3 4 5 6 7 7 7 7 7 6 6
6 7 7 7 10 11 9 7 9 11 14 14 13 13 14 11 9 11 9 8 9 8 7 6 7 6 6 6 5 6 5 5 4 4 4 6 6 7 8 8 8 7 7 7
5 6 8 8 10 9 7 9 7 10 13 7 12 14 16 13 12 9 5 4 7 8 7 7 7 7 6 6 6 7 6 6 5 4 4 6 6 7 8 8 8 7 7 7
5 7 9 11 12 8 8 11 11 11 12 19 21 20 19 17 15 14 11 7 7 8 8 9 9 8 7 7 7 8 7 6 5 4 5 6 6 7 8 8 7 8 8 8
9 7 6 7 8 4 14 15 14 17 21 22 22 21 20 19 19 18 15 12 10 10 10 11 10 9 8 8 9 9 8 6 5 5 6 7 7 7 8 8 8 8 9 9
5 6 7 7 8 13 16 17 18 19 21 21 21 21 21 21 20 19 17 14 12 12 11 11 12 11 10 10 10 10 8 7 7 7 7 7 8 7 8 9 9 9 8 8
4 6 8 9 8 15 17 19 20 21 22 22 21 21 20 20 19 19 17 14 12 12 12 12 13 12 12 12 12 10 8 8 8 8 8 8 8 8 8 7 8 8 8 8
8 7 7 9 11 14 15 20 22 22 22 22 21 20 19 19 18 17 15 14 11 10 11 12 13 14 13 13 12 11 10 9 10 9 9 9 9 8 8 7 4 5 5 3
7 7 6 6 10 11 12 16 20 20 20 21 21 20 19 18 18 17 14 13 11 10 10 12 14 15 14 14 13 13 11 11 11 9 9 8 8 8 8 8 7 8 6 7
Wind_Direction
225 222 83 25 336 349 256 260 259 264 348 282 272 277 328 4 6 20 16 10 1 346 342 308 256 242 233 229 229 227 228 218 217 220 220 219 224 227 229 230 230 230 234 234
206 108 54 50 169 211 226 248 254 229 237 284 281 269 228 4 15 24 23 23 16 12 17 8 337 282 256 242 240 237 231 227 222 223 227 233 238 238 236 235 235 233 236 239
350 62 45 198 182 215 219 289 315 305 295 258 270 262 204 183 178 95 60 43 36 25 17 13 3 354 331 307 283 269 255 245 235 232 228 232 230 238 240 236 233 232 234 238
239 82 265 246 245 283 261 344 307 296 289 287 284 286 264 200 194 159 88 60 48 36 27 18 9 1 348 331 311 293 280 267 258 247 240 237 234 237 239 240 238 236 236 237
159 300 279 266 325 305 327 327 298 290 284 280 271 271 277 193 228 181 94 58 43 32 19 11 4 355 349 337 323 311 302 287 273 262 253 250 250 251 253 245 241 238 233 230
292 259 289 315 308 308 308 288 278 262 262 265 271 276 279 258 261 117 78 45 30 18 4 360 353 347 342 337 332 323 309 300 291 277 266 258 258 258 256 248 242 234 226 224
257 215 192 255 263 239 298 308 294 272 248 270 341 281 277 37 60 349 343 352 355 347 342 342 340 339 334 332 331 325 317 307 299 287 273 265 261 258 254 250 243 237 228 220
287 256 136 270 308 318 324 310 308 305 303 309 294 266 308 72 183 242 280 300 308 311 319 323 324 325 326 327 328 325 321 314 307 297 287 279 271 262 257 250 247 237 224 214
291 302 137 213 292 299 305 306 328 291 283 280 272 265 266 181 225 244 268 280 292 300 304 305 309 315 318 321 326 326 322 318 316 312 303 287 274 264 262 257 245 239 217 192
291 288 258 182 229 211 291 312 277 279 296 292 283 283 278 238 269 276 284 292 296 297 294 297 302 305 307 311 319 328 328 325 323 321 313 302 288 270 259 250 231 182 159 160
274 279 272 227 250 290 266 258 278 284 279 287 292 299 23 300 298 298 304 307 301 297 296 295 296 300 301 303 315 326 329 331 333 332 328 323 319 307 269 125 107 110 109 109
271 281 284 278 275 276 273 274 272 276 280 266 276 285 335 272 287 292 299 301 297 293 293 292 291 292 292 297 308 321 331 335 336 339 341 349 357 24 72 86 89 96 98 97
256 267 276 266 205 201 233 248 260 268 272 270 271 277 146 254 277 286 291 294 288 285 287 286 280 278 283 290 300 314 322 331 334 348 7 23 29 41 66 78 82 86 90 89
264 266 274 285 297 302 284 272 261 260 267 272 272 282 291 294 297 299 297 290 280 279 279 278 273 267 272 280 289 297 311 315 323 11 45 47 51 59 74 82 82 85 89 93
248 270 275 280 286 287 283 281 276 262 261 272 283 289 296 303 303 300 294 284 274 274 274 271 265 262 262 266 274 283 290 296 309 45 93 90 99 99 95 94 92 92 96 100
248 280 287 284 282 282 281 277 273 270 268 269 275 281 291 299 299 291 280 271 269 272 272 267 259 257 257 259 265 275 272 271 256 204 152 131 122 119 115 112 109 107 105 105
260 272 286 284 293 293 276 275 279 278 272 275 280 292 304 302 298 291 285 276 270 273 272 265 259 253 250 251 256 263 265 250 236 204 172 156 150 139 136 134 132 128 125 123
265 271 269 282 291 265 292 331 299 292 288 287 286 288 293 295 297 288 276 273 272 270 268 260 253 247 241 237 234 245 252 246 236 206 180 169 170 156 149 148 145 142 138 135
244 249 268 277 284 284 293 307 313 303 295 297 302 306 306 312 296 271 251 244 256 264 261 253 244 240 231 233 230 236 242 238 230 212 183 173 170 160 156 154 150 146 140 137
191 229 263 272 286 288 323 9 350 300 285 341 341 326 318 309 287 302 336 237 238 240 239 232 227 225 219 222 224 233 240 234 228 210 188 174 174 168 159 153 152 147 145 145
237 240 253 275 277 276 354 1 324 296 325 338 323 315 309 302 294 301 301 270 241 231 222 217 218 216 216 214 216 229 239 236 227 207 187 180 176 168 156 150 150 152 151 145
294 286 279 277 275 292 10 343 329 318 317 313 309 305 302 299 294 289 283 271 249 233 221 212 210 212 209 207 212 226 233 232 221 209 196 182 174 170 155 154 156 157 152 151
270 314 316 301 300 335 338 327 325 323 316 312 307 303 300 297 295 290 283 273 254 237 224 211 207 208 203 202 211 225 224 219 216 209 199 183 174 171 162 164 163 164 169 173
304 336 299 294 305 331 332 339 339 332 324 317 312 305 299 297 295 293 288 280 263 241 222 210 208 207 203 201 207 217 217 209 212 208 195 183 177 173 170 175 177 179 179 182
338 330 315 294 332 338 343 345 340 336 334 331 327 320 314 307 301 298 294 287 272 248 226 212 208 208 205 199 203 207 207 203 210 206 196 189 185 177 171 179 169 191 167 164
17 7 340 335 343 324 331 339 340 339 340 339 337 335 335 332 324 317 308 302 291 267 237 219 213 211 206 199 199 200 199 200 206 203 197 193 186 177 179 170 158 58 67 79